This demonstration page uses our WeatherBlox Daily Observations layout. Learn more.

Left ArrowRight Arrow

38.89511, -77.03637

Hourly Observations for May 22, 2017

Temp ( °F °C ) Dew Point ( °F °C ) Humidity (%) Winds ( mph kmh ) Pressure ( in mb ) Visibility ( mi km ) Precip ( " mm )
12:28 am 00:28 Cloudy with Light Rain 64 17.8 53 11.7 68 68 ESE 6 9 30.18 1022 10 16 0.00 0.03
12:52 am 00:52 Cloudy 63 17.2 53 11.7 70 70 SSE 5 7 30.17 1022 10 16 0.00 0.03
1:52 am 01:52 Cloudy 63 17.2 53 11.7 70 70 ESE 5 7 30.15 1021 10 16 0.00 0.00
2:52 am 02:52 Cloudy with Light Rain 59 15 57 13.9 93 93 E 8 13 30.14 1021 7 11 0.00 0.03
3:08 am 03:08 Cloudy with Light Rain 59 15 57 13.9 93 93 E 5 7 30.15 1021 5 8 0.00 0.03
3:34 am 03:34 Cloudy with Drizzle 58 14.4 57 13.9 97 97 E 5 7 30.15 1021 3 5 0.01 0.25
3:52 am 03:52 Cloudy with Drizzle 59 15 57 13.9 93 93 ENE 5 7 30.13 1020 3 5 0.01 0.25
4:05 am 04:05 Cloudy with Drizzle 59 15 57 13.9 93 93 NE 3 6 30.12 1020 6 10 0.00 0.03
4:52 am 04:52 Cloudy with Light Rain 59 15 58 14.4 96 96 Calm 30.11 1020 10 16 0.02 0.51
5:52 am 05:52 Cloudy with Light Rain 59 15 58 14.4 96 96 ENE 6 9 30.10 1019 10 16 0.03 0.76
6:52 am 06:52 Cloudy with Light Rain 59 15 58 14.4 96 96 ESE 3 6 30.10 1019 10 16 0.05 1.27
7:00 am 07:00 Cloudy with Light Rain 59 15 58 14.4 96 96 ESE 5 7 30.12 1020 10 16 0.01 0.25
7:32 am 07:32 Cloudy with Light Rain 60 15.6 58 14.4 93 93 E 5 7 30.09 1019 10 16 0.02 0.51
7:52 am 07:52 Cloudy with Light Rain 60 15.6 58 14.4 93 93 E 5 7 30.10 1019 4 6 0.04 1.02
7:55 am 07:55 Cloudy with Rain 60 15.6 58 14.4 93 93 Calm 30.12 1020 2 3 0.00 0.03
8:11 am 08:11 Cloudy with Light Rain 60 15.6 59 15 96 96 Calm 30.12 1020 4 6 0.08 2.03
8:52 am 08:52 Cloudy with Light Rain 61 16.1 59 15 93 93 Calm 30.09 1019 4 6 0.13 3.30
9:52 am 09:52 Cloudy 61 16.1 59 15 93 93 SE 3 6 30.08 1019 7 11 0.05 1.27
10:12 am 10:12 Cloudy 62 16.7 60 15.6 93 93 E 6 9 30.06 1018 10 16 0.00 0.00
10:52 am 10:52 Cloudy with Light Rain 63 17.2 61 16.1 93 93 SE 5 7 30.06 1018 10 16 0.01 0.25
11:20 am 11:20 Cloudy with Light Rain 63 17.2 61 16.1 93 93 Calm 30.06 1018 10 16 0.00 0.03
11:35 am 11:35 Cloudy 63 17.2 61 16.1 93 93 S 5 7 30.06 1018 10 16 0.00 0.03
11:52 am 11:52 Cloudy 63 17.2 61 16.1 93 93 S 3 6 30.05 1018 10 16 0.00 0.03
12:52 pm 12:52 Cloudy 65 18.3 62 16.7 90 90 SE 6 9 30.03 1017 10 16 0.00 0.00
1:38 pm 13:38 Cloudy 66 18.9 62 16.7 87 87 S 6 9 30.03 1017 10 16 0.00 0.00
1:52 pm 13:52 Cloudy 67 19.4 64 17.8 91 91 S 7 11 30.01 1016 10 16 0.00 0.00
2:33 pm 14:33 Partly Cloudy 68 20 64 17.8 87 87 SSE 6 9 29.97 1015 10 16 0.00 0.00
2:52 pm 14:52 Mostly Cloudy 69 20.6 64 17.8 84 84 SE 5 7 29.98 1015 10 16 0.00 0.00
3:52 pm 15:52 Cloudy 70 21.1 63 17.2 79 79 S 7 11 29.95 1014 10 16 0.00 0.00
4:52 pm 16:52 Mostly Cloudy 71 21.7 63 17.2 76 76 S 5 7 29.95 1014 10 16 0.00 0.00
5:52 pm 17:52 Cloudy 70 21.1 64 17.8 82 82 S 7 11 29.95 1014 10 16 0.00 0.00
6:52 pm 18:52 Mostly Cloudy 71 21.7 64 17.8 79 79 SSE 5 7 29.95 1014 10 16 0.00 0.00
7:52 pm 19:52 Mostly Sunny 70 21.1 64 17.8 82 82 S 6 9 29.97 1015 10 16 0.00 0.00
8:02 pm 20:02 Mostly Cloudy 70 21.1 64 17.8 82 82 S 5 7 29.97 1015 10 16 0.00 0.00
8:52 pm 20:52 Mostly Cloudy 69 20.6 64 17.8 84 84 S 3 6 29.97 1015 10 16 0.00 0.00
8:58 pm 20:58 Mostly Cloudy 69 20.6 64 17.8 84 84 S 5 7 29.97 1015 10 16 0.00 0.00
9:52 pm 21:52 Mostly Cloudy 68 20 64 17.8 87 87 Calm 29.96 1015 10 16 0.00 0.00
10:52 pm 22:52 Mostly Cloudy 67 19.4 64 17.8 91 91 E 5 7 29.97 1015 10 16 0.00 0.00
11:52 pm 23:52 Partly Cloudy 66 18.9 65 18.3 96 96 Calm 29.98 1015 10 16 0.00 0.00

Powered by AerisWeather